Location: Newark
(5.2936°N, 52.5831°W)
Time: 09:40:58
(UTC+00:00)

Envisat - Visible Passes

Search period start: 04 July 2020 00:00
Search period end: 14 July 2020 00:00
Orbit: 764 x 766 km, 98.1° (Epoch: 03 July)

Date Brightness Start Highest point End Pass type
(mag) Time Alt. Az. Time Alt. Az. Time Alt. Az.
04 Jul 5.7 08:27:55 10° ENE 08:30:52 16° E 08:33:48 10° SE visible
06 Jul 4.9 08:51:46 10° NE 08:56:16 32° ESE 09:00:45 10° SSE visible
07 Jul 6.0 08:18:12 10° E 08:19:33 11° E 08:20:54 10° ESE visible
07 Jul 5.9 22:30:01 10° SW 22:32:19 13° W 22:34:38 10° WNW visible
09 Jul 5.3 08:40:56 10° NE 08:44:56 24° E 08:48:58 10° SSE visible
10 Jul 5.7 22:17:36 10° SW 22:21:00 18° W 22:24:24 10° WNW visible
12 Jul 5.7 08:30:20 10° ENE 08:33:38 17° E 08:36:56 10° SE visible
13 Jul 5.4 22:05:36 10° SSW 22:09:41 25° WSW 22:13:46 10° NW visible
